Weather in Portland

United States     43°39′26″N   70°16′09″W
temp.,
°C
wind,
m/s
gust,
m/s
humid.,
%
clouds,
%
prec.,
mm/h
press.,
hPa
HPBL,
m
23 january, sat
sat2301:00−2nnw386599 0.1 1005571
04:00−3n2465100 0.5 1008490
07:00−5nnw474983 0.0 1007691
10:00−5nnw585269 0.0 1010899
13:00−4nw5104783 0.0 10091111
16:00−4nw59399 0.0 10081187
19:00−6nw513414 0.0 10101143
22:00−8wnw513400 0.0 10091009
24 january, sun
sun2401:00−9wnw616510 0.0 1010939
04:00−8wnw5113667 0.0 1009911
07:00−9wnw494267 0.0 1009767
10:00−6wnw716450 0.0 1011885
13:00−4nw613459 0.0 1009942
16:00−4nw511490 0.0 1011988
19:00−7nw484816 0.0 1013567
22:00−7nw412540 0.0 1014684
25 january, mon
mon2501:00−8wnw365189 0.0 1013404
04:00−8nw255421 0.0 1013337
07:00−8wnw310600 0.0 1015510
10:00−5nw410500 0.0 1016597
13:00−2wnw25420 0.0 1012566
16:00−2nnw38460 0.0 1013745
19:00−3nw411522 0.0 1017600
22:00−4nnw411540 0.0 1018536
26 january, tue
tue2601:00−6nnw25560 0.0 1015366
04:00−7nnw25589 0.0 1014286
07:00−7nw236221 0.0 1019246
10:00−5nnw23492 0.0 1014328
13:00−1nne24450 0.0 1018545
16:00−1wnw24420 0.0 1014616
19:00−2nnw38560 0.0 1016457
22:00−3nne3668100 0.0 1021432
27 january, wed
wed2701:00−5nnw37590 0.0 1018348
04:00−5nnw38570 0.0 1019401
07:00−5n378729 0.0 1026277
10:00−2nne357511 0.0 1027401
13:00−2nw47410 0.0 1019903
16:00−3nnw48460 0.0 1020837
19:00−1nne237789 0.0 1029141
22:00−2nne248142 0.0 1029178